DW1289 Weather Reports


time (UTC)temp
F
wind
direction
speed
knots
gust
knots
rain 1hr
in
rain 24hr
in
rain mn
in
humidity
%
barometer
mb
20260504024017 53 0.0 0.0 0.00 0.00 0.00 66 1014.5
20260504023017 53 0.0 0.0 0.00 0.00 0.00 65 1014.5
20260504022016 54 0.0 0.0 0.00 0.00 0.00 63 1014.5
20260504021016 54 0.0 0.0 0.00 0.00 0.00 61 1014.6
20260504020016 55 0.0 0.0 0.00 0.00 0.00 60 1014.6
20260504015016 56 0.0 0.0 0.00 0.00 0.00 58 1014.5
20260504014016 57 0.0 0.0 0.00 0.00 0.00 56 1014.5
20260504013017 57 0.0 0.0 0.00 0.00 0.00 54 1014.5
20260504012036 59 0.0 0.0 0.00 0.00 0.00 52 1014.4
20260504011017 59 0.0 0.0 0.00 0.00 0.00 50 1014.3
20260504010017 60 0.0 1.7 0.00 0.00 0.00 49 1014.1
20260504005016 61 225 1.7 3.5 0.00 0.00 0.00 48 1013.7
20260504004016 61 248 1.7 6.1 0.00 0.00 0.00 48 1013.8
20260504003016 62 248 1.7 5.2 0.00 0.00 0.00 46 1013.9
20260504002016 62 248 2.6 6.1 0.00 0.00 0.00 46 1013.7
20260504001056 63 248 3.5 9.6 0.00 0.00 0.00 46 1013.7
20260504000016 63 225 3.5 9.6 0.00 0.00 0.00 45 1013.6
20260503235016 64 248 4.3 10.4 0.00 0.00 0.00 45 1013.5
20260503234016 64 248 4.3 10.4 0.00 0.00 0.00 45 1013.6
20260503233016 64 248 4.3 11.3 0.00 0.00 0.00 44 1013.6
20260503232036 64 248 4.3 10.4 0.00 0.00 0.00 44 1013.7
20260503231036 64 248 5.2 10.4 0.00 0.00 0.00 44 1013.7
20260503230016 65 248 3.5 9.6 0.00 0.00 0.00 44 1013.9
20260503225016 65 225 3.5 8.7 0.00 0.00 0.00 43 1014.2
20260503224016 65 248 5.2 10.4 0.00 0.00 0.00 43 1014.5
20260503223016 65 248 5.2 12.2 0.00 0.00 0.00 42 1014.5
20260503222016 66 248 5.2 11.3 0.00 0.00 0.00 41 1014.9
20260503221016 66 248 4.3 13.0 0.00 0.00 0.00 40 1014.7
20260503220016 66 248 5.2 10.4 0.00 0.00 0.00 40 1014.9
20260503215016 66 248 5.2 11.3 0.00 0.00 0.00 40 1015.3
20260503214036 66 248 7.0 12.2 0.00 0.00 0.00 37 1015.3
20260503213016 67 248 6.1 14.8 0.00 0.00 0.00 38 1015.8
20260503212016 67 248 5.2 10.4 0.00 0.00 0.00 39 1015.9
20260503211016 66 248 6.1 13.9 0.00 0.00 0.00 38 1015.9
20260503210016 67 248 6.1 15.6 0.00 0.00 0.00 37 1015.6
20260503205016 66 248 5.2 10.4 0.00 0.00 0.00 38 1015.9
20260503204036 65 248 5.2 10.4 0.00 0.00 0.00 39 1016.2
20260503203037 66 248 5.2 10.4 0.00 0.00 0.00 38 1016.2
20260503202036 67 248 7.0 16.5 0.00 0.00 0.00 35 1016.4
20260503201036 67 248 5.2 11.3 0.00 0.00 0.00 41 1016.6
20260503200016 67 248 4.3 8.7 0.00 0.00 0.00 36 1016.8
20260503195016 67 248 5.2 13.9 0.00 0.00 0.00 37 1017.1
20260503194016 67 248 4.3 9.6 0.00 0.00 0.00 41 1017.4
20260503193016 67 248 5.2 11.3 0.00 0.00 0.00 36 1017.7
20260503192016 67 248 5.2 11.3 0.00 0.00 0.00 39 1017.9
20260503191056 66 248 5.2 12.2 0.00 0.00 0.00 37 1018.1
20260503190036 67 248 5.2 11.3 0.00 0.00 0.00 41 1018.3
20260503185016 66 248 6.1 13.9 0.00 0.00 0.00 40 1018.5
20260503184016 66 270 4.3 10.4 0.00 0.00 0.00 39 1018.6
20260503183016 66 248 4.3 12.2 0.00 0.00 0.00 40 1018.8
20260503182036 66 248 3.5 7.8 0.00 0.00 0.00 41 1019.0
20260503181016 66 248 4.3 10.4 0.00 0.00 0.00 41 1019.1
20260503180016 65 248 4.3 13.0 0.00 0.00 0.00 39 1019.1
20260503175016 65 248 4.3 9.6 0.00 0.00 0.00 41 1019.4
20260503174036 65 248 3.5 10.4 0.00 0.00 0.00 40 1019.4
20260503173016 64 248 3.5 9.6 0.00 0.00 0.00 39 1019.5
20260503172016 64 248 4.3 10.4 0.00 0.00 0.00 37 1019.8
20260503171016 64 248 4.3 11.3 0.00 0.00 0.00 38 1020.2
20260503131016 46 225 2.6 6.1 0.00 0.00 0.00 80 1021.6
20260503081016 35 0.0 0.0 0.00 0.00 0.00 81 1020.2
20260503072016 36 0.0 0.0 0.00 0.00 0.00 80 1020.0
20260503071016 36 0.0 0.0 0.00 0.00 0.00 80 1019.9
20260503055016 39 0.0 0.0 0.00 0.00 0.00 78 1020.3
20260503054016 39 0.0 0.0 0.00 0.00 0.00 76 1020.2
20260503053056 39 0.0 0.0 0.00 0.00 0.00 76 1020.2
20260503052016 40 0.0 0.0 0.00 0.00 0.00 76 1020.1
20260503051016 40 0.0 0.0 0.00 0.00 0.00 75 1020.1
20260503050016 41 0.0 0.0 0.00 0.00 0.00 75 1020.1
20260503045016 41 0.0 0.0 0.00 0.00 0.00 75 1020.2
20260503044016 41 0.0 0.0 0.00 0.00 0.00 74 1020.1
20260503043016 42 0.0 0.0 0.00 0.00 0.00 73 1020.1
20260503042016 43 0.0 0.0 0.00 0.00 0.00 73 1020.0
20260503041016 43 0.0 0.0 0.00 0.00 0.00 72 1020.0
20260503040036 44 0.0 0.0 0.00 0.00 0.00 71 1020.0
20260503035036 44 0.0 0.0 0.00 0.00 0.00 71 1020.1
20260503034037 45 0.0 0.0 0.00 0.00 0.00 70 1019.9
20260503033016 45 0.0 0.0 0.00 0.00 0.00 68 1019.9
20260503032016 46 0.0 0.0 0.00 0.00 0.00 67 1019.8
20260503031016 47 0.0 0.0 0.00 0.00 0.00 67 1019.8
20260503030017 47 0.0 0.0 0.00 0.00 0.00 66 1019.7
20260503025016 48 0.0 0.0 0.00 0.00 0.00 65 1019.7